{"data":{"norad_id":61775,"epoch":"2026-05-25T03:27:54.724896Z","epoch_age_seconds":55768,"freshness":"FRESH","line1":"1 61775U 24199AS  26145.14438339  .00016006  00000+0  35639-3 0  9995","line2":"2 61775  97.3024  17.3753 0014992  10.8720 349.2849 15.43582084130612","mean_motion":15.43582084,"eccentricity":0.0014992,"inclination_deg":97.3024,"raan_deg":17.3753,"arg_perigee_deg":10.872,"mean_anomaly_deg":349.2849,"bstar":0.00035639,"rev_number":13061,"period_min":93.289499465323,"perigee_km":425.33245074276,"apogee_km":445.76260242727,"semimajor_km":6813.684526585,"source":"CELESTRAK","updated_at":"2026-05-25T13:38:02.560435Z"}}